International Skating Union - Official Site

Essent ISU World Cup Berlin
March 9-11, 2012

Draw | Lap Times | Index | World Cup

Referee: Daniel  CABELDUC  (SWE)
Starter: Jan  ZWIER  (NED)
StartTime: EndTime: Air Temp: Ice Temp: Humidity:
15:14 15:27 13.7 ℃ -5.2 ℃ 33.7%
Result Team Pursuit Men
Rankings as of Mar 11 2012 4:22PM
Rank: No.: Team: Nation: Time: Behind: Points:
Total 4
1 1 Netherlands (39) Koen VERWEIJ (44) Jan BLOKHUIJSEN (45) Douwe de VRIES (0)   NED NED 3:43.940.5 - 17.86 - (17.8)
1.0 - 30.97 - (13.1)
1.5 - 44.01 - (13.0)
2.0 - 57.33 - (13.3)
2.5 - 1:10.66 - (13.3)
3.0 - 1:24.48 - (13.8)
3.5 - 1:38.00 - (13.5)
4.0 - 1:51.86 - (13.8)
4.5 - 2:05.66 - (13.8)
5.0 - 2:19.58 - (13.9)
5.5 - 2:33.38 - (13.7)
6.0 - 2:47.50 - (14.1)
6.5 - 3:01.79 - (14.2)
7.0 - 3:15.88 - (14.0)
7.5 - 3:29.75 - (13.8)
8.0 - 3:42.94 - (13.1)
150
2 2 Korea (27) Seung-Hoon LEE (28) Hyung-Joon JOO (29) Byung-Wook KO (0)   KOR KOR 3:44.040.5 - 17.84 - (17.8)
1.0 - 31.21 - (13.3)
1.5 - 44.42 - (13.2)
2.0 - 57.78 - (13.3)
2.5 - 1:11.06 - (13.2)
3.0 - 1:24.63 - (13.5)
3.5 - 1:38.35 - (13.7)
4.0 - 1:52.15 - (13.8)
4.5 - 2:05.95 - (13.8)
5.0 - 2:19.99 - (14.0)
5.5 - 2:33.97 - (13.9)
6.0 - 2:48.25 - (14.2)
6.5 - 3:02.52 - (14.2)
7.0 - 3:16.48 - (13.9)
7.5 - 3:30.23 - (13.7)
8.0 - 3:44.04 - (13.8)
0.10 120
3 4 USA (66) Shani DAVIS (67) Brian HANSEN (68) Jonathan KUCK (0)   USA USA 3:45.440.5 - 3:31.47 - (11.4)
1.0 - 31.72 - (13.4)
1.5 - 45.18 - (13.4)
2.0 - 58.85 - (13.6)
2.5 - 1:12.64 - (13.7)
3.0 - 1:26.20 - (13.5)
3.5 - 1:39.85 - (13.6)
4.0 - 1:53.35 - (13.5)
4.5 - 2:07.24 - (13.8)
5.0 - 2:21.16 - (13.9)
5.5 - 2:35.41 - (14.2)
6.0 - 2:49.58 - (14.1)
6.5 - 3:03.83 - (14.2)
7.0 - 3:17.72 - (13.8)
7.5 - 3:31.41 - (13.6)
8.0 - 3:45.44 - (14.0)
1.50 105
4 3 Germany (19) Marco WEBER (17) Patrick BECKERT (80) Robert LEHMANN (0)   GER GER 3:45.510.5 - 18.22 - (18.2)
1.0 - 31.91 - (13.6)
1.5 - 45.41 - (13.4)
2.0 - 58.78 - (13.3)
2.5 - 1:12.35 - (13.5)
3.0 - 1:26.08 - (13.7)
3.5 - 1:39.78 - (13.7)
4.0 - 1:53.76 - (13.9)
4.5 - 2:07.50 - (13.7)
5.0 - 2:21.41 - (13.9)
5.5 - 2:35.30 - (13.8)
6.0 - 2:49.31 - (14.0)
6.5 - 3:03.46 - (14.1)
7.0 - 3:17.35 - (13.8)
7.5 - 3:31.19 - (13.8)
8.0 - 3:45.51 - (14.3)
1.57 90